GEFSMA_500_meanwind_072.txt.gz
Wind_Speed
14 15 15 15 15 15 16 16 16 17 18 18 18 18 18 18 19 19 19 19 19 19 19 19 20 20 20 21 22 23 23 24 24 25 26 26 27 28 29 30 30 30 31
17 17 18 18 18 19 19 19 20 20 21 21 20 20 20 21 21 21 21 21 21 21 21 21 22 22 22 23 23 24 24 25 26 27 27 28 29 29 30 31 32 33 33
20 20 21 22 22 23 23 23 24 24 24 23 23 23 23 24 24 24 24 24 23 24 24 24 24 24 24 25 26 26 27 27 28 29 30 30 31 31 32 33 34 34 35
23 24 25 26 26 26 27 27 27 27 27 27 27 27 27 27 27 27 27 27 27 27 27 27 27 27 28 29 29 30 30 31 31 32 33 34 35 35 36 36 37 37 37
27 28 28 29 30 30 30 30 31 31 29 29 29 29 30 29 29 29 30 30 29 29 30 30 31 31 32 33 33 34 34 35 36 37 37 37 38 39 39 40 41 42 42
30 31 31 31 32 32 32 33 34 33 32 31 31 32 30 31 31 31 32 32 32 33 33 34 35 36 36 37 37 38 38 40 40 41 41 42 43 43 44 45 46 46 47
32 32 31 32 33 34 34 34 35 34 34 33 32 32 32 32 32 34 34 34 35 35 36 37 38 40 41 41 41 42 43 44 45 46 46 47 48 48 49 49 50 51 51
32 32 31 32 33 31 33 34 33 32 32 32 31 30 31 32 33 35 36 36 37 39 40 41 41 42 43 45 46 47 48 48 49 50 51 52 53 53 54 54 54 55 55
35 34 32 32 32 32 32 30 30 31 31 32 32 32 32 33 34 36 38 39 40 42 43 43 45 46 48 49 50 51 52 53 54 54 55 56 57 58 59 59 59 60 60
35 35 35 33 33 32 32 32 34 34 34 34 34 35 36 37 39 40 40 42 44 45 46 48 50 51 52 54 55 56 56 57 58 59 60 61 62 63 63 64 65 65 65
36 36 36 37 35 34 34 35 36 35 35 36 37 38 40 41 42 43 44 45 46 48 50 51 53 55 57 58 59 59 60 61 62 64 65 66 67 67 67 68 68 68 68
38 38 39 39 37 37 37 37 37 38 39 39 40 41 42 44 44 46 48 50 51 52 54 56 58 60 61 62 63 63 64 66 66 68 69 70 71 71 70 71 71 71 71
38 39 40 40 39 39 40 40 40 40 41 41 42 43 45 47 49 51 52 54 55 57 59 60 63 65 66 66 67 67 69 69 70 71 72 72 73 73 73 73 72 72 72
40 41 41 40 40 41 42 43 43 44 44 45 46 47 49 51 52 54 56 58 60 61 63 64 66 67 68 69 69 69 70 70 71 72 73 73 73 73 73 73 72 71 71
42 42 42 42 43 44 44 46 46 47 48 48 49 51 52 54 56 58 60 62 63 65 66 67 67 68 68 69 68 69 69 70 70 70 70 70 69 69 69 68 68 68 68
43 44 45 46 46 47 47 47 48 49 51 51 53 54 56 57 59 61 63 64 65 66 67 68 68 68 67 67 67 66 66 65 65 65 65 65 64 64 64 64 64 64 64
46 47 46 46 47 47 48 49 50 52 53 53 55 56 58 59 61 62 62 63 63 63 64 64 64 64 63 62 62 61 60 60 59 59 58 58 58 58 58 57 57 57 57
45 45 46 46 46 48 49 50 52 52 54 55 56 57 58 59 59 59 59 59 58 58 57 57 57 56 55 55 54 53 52 51 51 51 50 50 50 51 50 50 49 49 49
44 44 44 45 47 48 49 51 52 53 54 55 56 56 56 56 56 56 55 54 53 52 51 51 50 50 49 48 46 46 45 45 44 44 43 43 43 43 43 43 43 43 43
43 43 44 45 46 47 49 50 52 53 53 54 54 54 54 53 52 51 49 48 47 46 45 44 44 43 42 41 41 40 39 38 38 38 37 37 36 37 37 38 39 39 39
42 42 43 44 45 46 48 49 49 50 51 51 51 50 48 46 45 43 42 41 40 39 38 37 37 37 36 36 35 34 34 33 33 33 33 32 32 33 33 34 34 34 35
40 41 42 43 44 45 46 46 47 47 47 46 44 42 40 39 38 36 34 33 32 32 32 31 31 30 30 30 29 29 29 28 28 29 29 29 29 29 30 30 30 31 32
38 39 40 41 42 42 43 43 42 41 40 39 37 36 34 33 31 29 27 26 25 24 24 24 24 24 24 24 24 25 25 25 25 25 25 25 26 26 26 27 28 29 30
36 37 37 38 39 39 39 38 37 36 35 33 32 31 29 27 25 23 22 21 20 19 18 19 19 19 20 20 21 21 22 22 22 22 22 22 23 24 24 25 25 26 26
33 34 35 35 35 35 34 34 33 32 30 28 27 25 22 21 19 17 16 15 15 15 15 16 16 16 17 17 18 19 19 19 20 20 20 21 21 22 22 23 23 23 23
30 31 31 31 31 31 30 29 28 26 24 22 20 18 17 16 15 14 13 13 14 15 15 15 15 16 16 17 17 17 17 18 18 19 19 19 19 20 20 20 21 21 22

GEFSMA_500_meanwind_078.txt.gz
Wind_Speed
14 15 15 16 16 16 17 18 18 19 20 21 22 22 23 24 24 24 22 22 21 21 21 21 21 21 20 20 20 20 21 21 22 22 23 23 24 24 24 25 25 25 26
15 16 17 18 19 19 20 21 21 22 23 23 24 25 26 26 26 26 26 25 25 25 24 24 24 24 23 23 23 23 23 24 24 25 25 26 26 27 27 27 28 28 29
17 18 19 20 21 22 23 24 25 25 26 27 27 28 28 29 29 29 29 28 28 28 27 27 27 27 27 27 27 26 27 27 28 28 29 29 29 30 31 31 32 32 33
20 21 22 23 24 25 26 27 27 27 27 28 29 30 31 31 31 31 31 32 31 30 29 29 29 30 30 30 31 31 31 31 32 32 33 33 34 34 35 35 35 36 37
23 25 25 26 27 28 28 28 28 28 28 29 30 31 32 32 33 32 32 33 33 32 32 30 30 32 33 34 34 35 35 36 37 37 37 38 38 39 39 39 40 41 41
27 28 28 28 29 29 30 29 28 29 29 29 30 31 32 33 32 31 32 33 32 32 33 33 34 35 37 37 38 39 40 40 41 42 42 43 43 43 44 45 45 45 46
29 28 29 30 31 31 29 28 29 30 30 29 28 28 30 31 31 31 32 32 32 32 34 37 38 39 40 40 41 43 44 45 47 47 48 48 48 48 49 50 50 51 51
31 32 32 33 33 33 32 30 30 29 29 30 30 30 31 31 32 32 33 34 35 36 38 39 40 42 44 44 45 46 47 49 51 52 52 53 54 54 54 55 55 56 56
31 32 33 33 32 31 30 30 31 31 31 32 32 32 33 33 34 34 35 36 38 39 39 41 43 45 48 49 49 50 52 54 56 57 57 58 59 60 60 60 61 61 61
34 33 33 32 31 31 31 31 32 32 33 34 34 34 35 36 36 36 37 38 40 41 43 45 46 48 50 53 54 56 57 59 60 61 62 63 63 64 64 64 65 65 66
32 31 31 32 32 31 32 33 34 35 35 36 37 36 37 39 39 39 40 41 43 45 46 49 50 52 53 55 57 58 59 61 62 63 65 66 66 67 67 67 67 68 68
33 32 32 31 32 32 34 35 36 37 38 39 39 40 41 41 41 43 44 45 47 49 52 54 55 56 58 59 61 61 62 63 65 66 67 68 69 70 71 70 69 70 70
33 33 34 35 35 35 37 38 39 39 40 40 41 42 43 43 45 46 48 50 51 54 56 58 60 61 62 63 63 63 64 65 67 67 68 69 70 71 72 72 72 72 72
36 36 36 36 37 38 39 40 42 42 42 43 44 45 46 47 48 50 52 54 56 57 58 60 61 61 62 63 63 64 66 66 66 67 68 69 69 69 70 71 72 73 72
38 38 38 38 39 41 42 43 45 45 44 45 46 47 47 49 50 52 54 55 56 56 58 59 60 60 61 62 63 63 63 63 64 64 65 65 65 66 66 67 68 68 67
39 39 40 41 42 43 44 45 46 46 46 46 47 47 49 50 52 53 53 54 55 55 57 58 58 59 59 59 59 59 60 60 60 61 61 61 62 62 62 62 62 62 62
40 41 43 44 45 45 45 46 45 45 46 47 47 48 49 50 51 51 51 52 53 54 54 54 54 54 54 54 55 55 55 55 56 56 56 56 56 56 56 56 56 56 55
42 43 44 44 45 45 45 45 45 46 47 46 47 48 48 49 50 50 50 51 50 50 49 48 48 48 48 48 48 49 50 50 50 50 50 50 50 50 50 50 50 49 49
44 45 45 45 45 45 45 44 45 45 46 46 46 47 48 48 48 48 48 47 45 44 44 43 43 43 43 43 42 43 43 44 44 44 43 43 43 43 43 43 43 42 42
44 45 44 43 43 43 43 43 43 44 44 45 45 45 45 45 45 44 43 42 41 40 40 40 40 39 39 38 38 37 37 38 37 37 37 37 36 36 36 36 35 35 36
41 41 41 40 40 40 41 42 42 43 43 43 43 42 42 41 41 40 39 38 38 37 37 36 36 35 34 33 33 33 32 32 31 31 30 30 30 30 30 30 30 30 31
37 37 37 38 38 38 39 40 40 40 40 39 39 38 38 37 36 35 34 34 33 32 31 31 30 29 28 27 27 27 27 26 26 26 26 26 26 26 26 26 26 27 27
34 35 35 36 36 37 37 37 36 36 35 35 35 34 33 32 30 29 29 27 26 25 25 24 24 23 24 24 24 24 24 24 23 23 23 23 24 23 23 22 22 23 24
32 32 33 33 33 33 33 33 32 32 31 30 29 28 27 26 25 25 23 22 21 22 22 21 21 21 22 22 22 22 22 22 22 21 21 21 22 22 22 22 21 22 22
29 29 30 31 31 30 30 29 28 27 26 25 24 23 22 21 21 20 19 19 20 20 20 19 20 21 21 21 22 22 21 21 20 20 20 20 20 21 21 21 20 20 21
28 28 28 28 27 26 26 25 23 22 21 20 19 19 18 18 18 18 18 18 18 18 18 19 19 20 20 20 21 21 21 20 20 20 20 20 19 19 19 20 20 20 20

GEFSMA_500_meanwind_084.txt.gz
Wind_Speed
14 13 13 13 13 13 13 14 15 15 17 18 19 20 20 21 22 22 22 22 22 22 22 22 23 23 23 23 22 22 22 22 22 22 23 23 23 24 25 26 27 27 27
14 14 14 14 15 15 15 15 17 17 18 19 21 21 22 23 24 24 24 24 24 24 25 25 25 26 26 26 25 25 25 25 25 26 26 26 27 27 28 29 29 30 31
16 16 16 16 16 16 17 17 17 18 19 21 21 22 23 23 24 25 25 26 26 26 27 27 27 26 27 27 27 28 28 28 29 29 29 30 30 31 32 33 33 34 35
18 18 18 17 18 18 19 19 19 20 21 22 23 23 24 25 24 25 26 26 26 28 29 28 28 28 28 29 30 31 31 32 32 33 33 34 35 35 36 37 37 38 38
19 19 19 19 20 21 21 21 21 21 22 24 24 25 25 25 25 25 25 26 27 29 30 29 29 29 30 32 32 33 34 35 36 37 38 39 39 40 41 41 42 42 43
18 19 21 21 22 23 23 23 24 24 24 25 26 27 27 26 26 26 27 27 28 29 29 30 31 32 33 34 34 35 37 39 40 41 43 44 45 45 46 46 47 47 48
18 19 20 22 23 24 24 24 25 25 25 26 27 28 28 29 28 28 29 30 30 31 31 32 33 34 34 36 38 39 41 42 44 45 47 48 49 49 50 51 52 52 53
19 20 20 21 23 23 22 24 24 25 25 26 27 27 28 29 29 30 31 32 34 35 35 35 36 36 38 40 41 44 45 46 47 49 50 51 52 54 55 56 57 57 57
20 20 21 21 21 23 24 24 24 25 25 25 26 27 28 28 30 32 33 34 35 36 37 39 40 41 42 44 46 47 48 49 51 52 53 55 56 58 58 59 60 61 62
21 21 20 21 21 21 22 22 23 25 25 26 27 28 30 31 32 33 35 37 37 38 39 41 43 45 46 48 49 50 51 52 54 55 56 58 60 61 61 62 63 63 64
20 20 20 20 21 22 23 24 24 25 27 28 30 31 32 33 34 35 37 38 40 42 43 44 46 48 50 51 52 53 54 56 57 58 60 61 62 63 63 63 64 65 66
22 21 21 22 23 24 26 26 27 28 29 30 32 33 35 36 37 38 39 40 42 44 46 48 49 50 51 52 54 55 57 59 60 61 62 62 63 64 65 65 65 66 67
24 24 25 25 26 27 28 29 29 30 32 33 35 36 37 37 39 40 41 42 44 46 48 49 51 52 53 54 56 57 59 60 61 62 62 62 63 64 65 66 67 67 68
26 27 28 29 29 31 31 32 32 33 35 36 37 38 39 40 41 43 44 45 46 48 49 50 51 52 54 55 56 57 58 58 58 59 59 59 60 60 61 63 64 66 67
30 31 32 33 34 35 35 35 35 36 37 38 39 41 42 43 44 45 46 46 47 49 50 51 52 53 54 55 56 56 56 56 56 56 56 56 57 57 58 59 60 60 60
33 34 35 36 37 37 37 38 38 39 40 40 41 42 44 45 45 45 46 46 47 49 50 52 52 53 53 54 54 53 53 53 54 55 56 56 56 56 56 56 55 55 55
36 37 37 38 38 39 39 40 40 40 41 41 42 43 43 44 44 45 45 47 47 48 49 50 50 50 50 50 50 50 50 51 52 52 53 53 52 52 52 51 51 51 51
37 38 38 38 39 39 40 40 40 40 41 41 41 41 42 43 43 44 45 46 46 46 46 46 47 47 47 47 47 47 47 48 48 48 48 47 46 46 46 46 46 46 45
38 39 39 40 40 40 40 40 40 40 40 41 41 41 41 42 42 42 43 43 42 42 42 42 42 42 42 43 43 43 43 43 42 41 41 41 40 40 40 40 40 40 40
39 39 39 39 39 40 39 39 38 38 39 38 39 39 39 40 39 38 38 37 37 37 36 36 37 37 38 38 38 38 38 39 38 37 37 36 36 35 34 34 33 33 33
38 39 39 38 38 38 37 37 37 37 37 37 37 37 36 36 35 34 34 34 33 33 33 34 34 34 34 34 34 34 34 34 32 31 31 31 30 30 30 30 29 29 29
36 36 36 36 36 35 35 35 35 35 35 35 34 33 32 31 30 30 30 30 30 30 30 30 30 29 29 29 29 29 28 27 26 26 26 27 26 26 25 25 25 25 25
32 32 32 32 32 32 33 34 33 33 32 31 30 29 28 27 27 27 26 26 26 26 26 26 25 26 25 25 25 24 24 24 23 23 24 24 23 22 22 22 22 22 22
30 30 30 30 30 31 31 31 30 29 28 28 27 25 24 23 23 23 23 23 24 24 24 23 23 23 23 22 22 22 22 22 22 22 22 22 21 21 21 20 20 20 21
29 29 29 29 29 29 28 28 27 26 25 24 22 20 20 20 21 21 22 22 22 22 22 22 22 21 21 20 21 21 21 21 21 22 21 21 20 20 20 19 20 20 20
27 27 26 26 25 25 24 23 23 22 21 20 19 18 18 19 19 20 20 21 21 21 21 21 21 20 20 20 20 21 20 20 20 20 20 20 19 18 18 19 19 20 21

GEFSMA_500_meanwind_090.txt.gz
Wind_Speed
19 19 18 18 17 16 16 16 15 15 15 15 15 15 15 16 16 17 18 19 19 19 20 20 20 21 22 22 22 23 23 24 24 24 24 24 24 25 25 26 26 26 27
20 20 20 19 18 17 17 17 17 17 17 17 17 18 18 18 18 18 18 19 20 20 21 21 22 22 22 23 24 25 25 26 26 27 27 28 28 28 29 29 29 29 30
22 21 20 21 20 19 19 19 19 19 19 20 20 20 20 20 20 20 20 20 21 21 22 23 24 24 25 25 26 26 26 27 28 29 30 31 31 32 32 33 33 34 34
23 22 22 22 22 21 21 21 20 21 21 21 22 22 22 22 23 22 22 23 24 24 24 25 26 26 27 27 27 27 27 28 30 31 32 34 35 35 36 37 37 38 39
24 24 24 24 23 23 23 23 22 23 23 24 24 24 25 25 25 25 25 26 26 27 27 27 28 28 28 28 29 30 31 31 32 34 35 36 37 38 39 40 41 42 43
24 24 25 24 25 25 24 25 25 26 25 25 26 27 27 28 27 28 28 29 29 29 30 30 31 30 30 31 32 33 34 34 35 36 37 39 40 41 42 43 45 46 47
25 24 24 24 24 24 24 25 26 27 27 27 27 27 28 29 29 29 29 30 31 31 32 33 33 33 34 34 36 37 38 38 39 40 41 42 44 45 47 49 49 50 51
24 24 24 24 24 24 25 25 26 27 28 27 28 29 29 29 30 31 31 32 32 33 34 34 35 36 37 38 39 40 41 42 43 44 45 46 47 48 50 52 52 53 53
24 24 23 23 24 24 25 25 26 27 27 28 29 31 31 30 31 32 33 34 35 35 36 36 38 39 40 41 42 43 44 45 47 48 49 50 51 51 52 53 54 56 57
24 24 24 24 24 25 25 25 26 26 27 28 30 31 31 32 33 34 35 36 37 37 38 39 40 41 42 44 45 46 47 48 49 51 52 53 53 54 55 55 56 58 59
22 22 22 23 24 25 25 26 27 26 27 28 29 30 31 33 34 36 37 37 38 39 40 41 42 43 44 45 47 48 50 50 51 53 54 55 56 56 56 56 57 58 59
20 21 22 23 24 25 25 25 27 27 28 29 30 31 33 34 36 37 38 39 40 41 43 43 44 46 47 48 49 51 52 52 53 54 55 56 57 57 57 57 58 58 59
20 21 21 23 24 26 27 28 29 30 31 32 33 34 35 37 38 39 40 42 43 44 45 45 46 48 49 50 51 52 53 54 54 55 56 57 57 58 58 58 58 58 58
24 24 24 25 27 29 30 30 31 33 34 35 36 37 38 39 40 41 42 44 45 46 46 47 48 49 50 51 52 53 53 54 54 54 55 55 55 56 56 57 57 58 58
26 27 27 29 30 31 32 33 34 35 36 37 38 39 40 41 42 43 43 44 45 46 47 48 49 51 52 52 52 52 52 52 52 52 51 52 53 54 55 55 55 56 56
27 27 29 30 32 33 34 35 36 37 38 39 40 41 41 41 42 43 43 44 45 46 47 48 49 50 50 50 49 49 49 49 49 49 50 50 50 50 50 51 51 51 51
28 29 30 31 32 34 35 36 37 38 39 40 41 41 41 41 42 43 43 44 45 46 46 47 47 47 47 46 46 45 45 46 46 47 47 47 47 48 48 47 48 48 48
30 31 32 33 34 35 36 37 38 39 40 40 40 40 40 41 42 43 43 43 43 44 44 43 42 41 41 41 41 42 42 43 43 44 44 44 44 44 44 44 45 45 44
32 33 33 34 35 35 37 38 39 40 40 39 40 40 40 40 41 41 41 40 40 39 39 38 38 38 38 38 39 39 39 39 39 39 39 40 40 40 40 40 40 40 39
32 33 33 34 35 36 37 38 38 38 38 38 38 38 38 38 38 37 37 36 36 35 35 34 34 34 34 35 35 35 35 35 35 34 35 35 35 35 35 35 35 35 34
32 32 32 33 34 35 35 35 35 35 35 35 35 35 35 35 34 34 33 32 32 32 31 31 31 30 31 31 31 31 31 31 31 31 31 31 31 31 30 30 30 30 30
31 31 31 31 31 31 31 32 32 31 31 32 31 31 31 31 31 30 29 29 28 28 28 27 27 27 28 28 28 28 27 28 28 28 28 28 28 28 27 27 27 27 28
29 29 29 29 29 29 28 28 28 28 28 28 28 29 29 28 27 26 26 26 25 25 25 25 25 26 26 26 26 26 25 25 25 25 25 26 26 25 25 25 25 25 26
26 26 26 27 27 27 26 26 27 26 26 26 26 26 26 25 24 23 23 23 22 22 23 23 23 24 24 24 24 24 24 24 23 23 23 23 23 24 24 24 25 25 25
24 25 25 25 25 25 25 25 25 24 24 23 23 23 22 22 21 20 20 20 20 21 21 21 22 22 22 22 22 22 22 21 21 21 21 21 21 22 23 24 24 25 25
23 23 23 23 23 23 23 22 22 21 21 21 21 20 19 19 18 18 18 18 19 20 20 20 21 21 21 21 20 20 20 19 19 19 19 19 20 21 22 23 24 24 24

GEFSMA_500_meanwind_096.txt.gz
Wind_Speed
23 22 22 22 22 21 20 20 19 19 18 18 18 18 18 18 18 18 18 18 18 19 18 18 19 19 19 19 19 20 21 21 22 22 23 23 24 24 25 25 25 25 26
24 24 23 23 24 23 22 22 21 21 20 20 20 20 20 20 20 20 20 20 20 19 19 19 20 20 20 20 21 22 22 23 23 24 25 26 26 27 27 28 28 29 29
27 26 25 25 25 24 23 24 24 23 23 22 21 22 22 22 22 22 22 22 22 22 22 22 22 23 23 24 24 25 25 25 25 26 27 28 28 28 29 30 31 32 33
28 28 27 26 26 26 26 26 25 25 24 24 23 23 24 24 24 25 25 25 25 25 24 25 25 26 27 27 28 28 27 28 29 29 29 30 31 32 32 33 34 35 36
30 30 28 27 27 27 27 27 27 27 26 26 25 25 25 26 26 26 27 27 27 27 28 28 29 29 30 30 31 31 31 32 32 33 33 34 34 35 36 37 38 39 40
30 30 29 29 29 29 29 29 29 29 28 28 28 27 27 27 28 28 29 29 29 30 30 31 31 32 33 34 33 33 34 35 35 36 36 37 38 39 40 41 42 42 42
30 30 31 30 29 29 29 30 29 29 29 29 29 29 28 28 29 30 30 31 31 31 32 33 34 34 35 36 36 36 37 37 38 39 39 40 41 43 44 44 45 46 46
29 30 32 31 29 28 28 29 29 30 30 30 30 30 30 30 30 30 31 33 34 34 34 34 35 36 37 38 38 39 39 40 41 42 43 45 45 46 47 48 48 49 49
28 28 30 30 30 30 30 30 31 31 31 31 30 31 32 32 32 33 33 34 34 34 34 36 37 38 39 40 41 41 43 43 44 45 46 47 48 49 50 50 51 52 52
30 29 29 30 31 31 31 30 30 30 30 30 30 30 31 32 33 33 33 34 35 36 37 38 39 41 42 43 44 44 45 46 47 48 48 50 51 51 52 53 53 53 53
30 30 30 31 30 30 30 31 30 31 31 31 31 32 33 33 33 33 35 36 37 38 39 41 42 43 44 45 46 47 48 48 49 50 51 52 53 53 53 53 52 52 53
30 31 31 30 30 30 31 31 31 31 32 32 33 33 34 35 35 36 38 38 39 40 41 42 44 46 47 47 48 49 50 50 51 52 52 53 53 53 52 52 52 53 54
28 28 28 29 29 29 29 29 30 31 32 33 33 33 34 36 37 38 40 41 42 43 44 45 46 47 48 48 49 50 51 52 52 52 53 52 52 52 52 51 51 52 52
28 26 26 27 28 28 27 28 29 31 32 33 34 35 36 37 39 40 41 42 44 45 46 47 48 48 49 50 50 52 52 52 52 52 51 51 50 50 50 50 51 51 52
28 26 26 27 28 28 29 29 30 32 32 34 35 37 38 39 40 41 43 44 45 46 47 47 48 48 49 50 50 51 51 50 50 49 48 48 48 48 48 49 50 51 51
27 28 27 28 29 30 31 31 32 33 34 35 36 37 38 39 40 42 43 44 45 46 47 47 48 49 49 50 49 49 48 47 46 45 45 45 45 46 47 48 49 49 50
27 29 30 31 31 32 33 33 34 34 35 36 37 38 39 40 41 43 43 44 45 46 47 47 48 48 48 47 46 45 44 43 43 42 42 42 43 44 45 46 46 47 47
29 30 31 32 33 33 34 34 35 35 36 37 37 38 39 41 42 43 43 44 44 45 45 45 44 44 43 42 40 40 39 39 39 39 39 40 41 41 41 42 42 43 43
28 29 30 30 31 31 32 33 34 34 35 36 37 38 39 40 41 41 41 41 41 41 41 40 39 38 37 36 36 36 36 36 36 37 37 37 37 37 37 37 37 37 37
27 28 28 29 30 31 32 33 33 34 34 36 37 37 38 38 38 38 38 38 37 37 37 36 35 34 34 33 33 33 33 33 34 34 34 35 34 34 33 33 33 34 34
27 28 28 29 30 31 31 31 32 33 33 34 35 35 35 35 35 35 35 34 34 34 33 33 32 32 31 31 31 31 31 31 31 31 32 32 32 31 31 30 31 31 32
27 28 29 30 31 30 31 31 32 32 32 32 32 33 33 33 33 33 33 32 32 31 30 30 29 29 29 29 29 29 29 29 29 29 29 29 29 28 28 29 29 29 30
26 27 27 28 29 29 29 29 29 29 29 30 30 30 30 30 30 31 30 30 29 28 27 27 27 27 27 27 27 27 27 27 27 26 26 26 25 26 26 26 27 28 28
24 24 24 25 25 26 26 26 26 27 27 28 28 28 27 28 28 28 27 26 26 25 24 24 24 24 24 25 25 25 24 24 23 23 23 23 24 24 24 25 26 26 26
21 22 22 22 23 24 24 25 25 26 26 26 25 25 25 25 25 24 24 23 22 22 22 22 22 22 23 23 22 22 21 21 21 21 21 21 21 22 22 23 24 24 24
19 20 21 21 22 22 22 23 23 23 24 24 24 24 23 23 22 22 21 20 20 20 20 20 20 20 20 21 20 20 19 19 19 19 18 18 19 20 20 21 22 23 22

GEFSMA_500_meanwind_102.txt.gz
Wind_Speed
26 26 26 25 24 24 23 23 22 22 20 19 19 19 19 19 18 17 17 17 17 17 17 17 17 16 17 17 17 16 17 17 17 18 19 19 20 21 21 22 22 23 24
26 26 26 25 25 24 24 25 24 23 22 21 21 21 20 21 21 20 19 19 19 19 19 18 18 18 19 19 19 19 19 19 19 20 21 22 22 23 23 24 25 26 26
24 25 26 26 25 25 27 27 26 25 24 23 23 23 23 23 23 22 21 21 21 21 21 21 21 21 21 21 21 22 22 22 23 23 24 24 25 26 26 27 28 28 29
25 26 25 26 26 26 27 28 27 26 26 25 25 26 25 25 24 23 23 23 23 23 24 24 24 23 24 24 24 24 25 25 26 27 27 28 29 29 30 31 31 32 31
25 26 26 27 27 27 29 29 28 28 27 27 27 27 27 25 25 26 25 25 25 25 25 26 27 27 27 27 27 27 28 28 29 30 30 31 32 33 33 34 35 35 36
25 24 24 25 27 28 29 30 30 29 29 30 29 28 28 28 27 27 27 27 27 27 27 28 29 29 30 30 30 30 31 32 32 33 34 35 35 36 36 37 38 38 39
24 24 24 25 27 29 30 29 29 29 29 29 28 28 29 28 28 28 29 29 30 30 30 30 31 32 32 32 32 34 35 35 35 36 36 37 38 38 39 40 41 42 43
26 26 27 27 28 30 32 31 30 29 29 29 29 28 29 30 29 29 31 32 32 33 33 33 34 34 34 34 35 36 37 37 38 38 39 40 41 41 42 43 44 44 45
28 27 27 27 28 29 30 31 31 31 31 31 31 30 30 30 31 31 32 33 35 35 36 36 36 36 36 35 36 37 39 40 40 41 42 43 45 45 45 46 47 47 48
28 28 28 28 28 29 30 31 31 31 32 33 32 32 32 32 33 33 34 35 36 36 37 36 36 37 38 38 38 39 40 42 43 44 46 47 47 48 48 48 49 49 50
29 28 29 30 29 29 31 31 31 32 32 32 32 33 34 35 35 35 35 36 36 37 38 38 38 39 40 40 41 42 43 45 46 47 48 49 49 50 50 50 50 51 51
29 28 29 29 29 29 30 31 32 33 33 33 33 33 34 34 34 35 35 35 35 36 37 38 39 41 42 42 43 44 46 47 48 49 50 51 51 51 51 51 50 50 50
29 29 29 30 29 30 31 32 33 34 34 35 35 34 33 32 33 34 35 36 37 38 39 39 40 41 43 44 46 47 47 48 49 50 51 51 51 51 51 50 49 49 49
30 29 29 29 29 30 31 32 33 33 34 34 34 34 34 34 34 35 36 37 38 40 40 41 41 42 44 45 46 47 48 49 49 50 50 50 49 49 48 48 47 47 48
28 28 28 28 29 30 31 31 31 31 32 32 33 34 33 33 34 35 36 38 39 41 42 41 42 43 45 46 46 47 47 48 48 48 48 47 47 46 45 45 45 45 45
27 28 29 29 30 31 31 31 31 31 31 32 33 33 33 33 34 36 36 37 39 41 42 42 42 43 44 45 46 46 46 46 45 45 45 44 43 42 42 42 42 43 43
28 28 28 28 30 30 30 31 31 31 32 32 32 33 34 35 36 37 37 37 38 40 42 42 41 42 43 44 44 44 44 43 42 41 40 40 39 39 39 39 39 40 40
29 28 28 28 29 29 30 30 31 31 31 31 32 33 35 36 36 37 37 37 38 39 40 40 40 40 41 41 41 41 41 40 38 37 37 37 37 37 37 37 37 37 36
28 27 27 27 27 28 28 29 30 31 32 32 33 33 34 34 34 35 35 36 37 37 38 39 39 39 39 39 38 38 37 37 35 34 34 34 35 35 35 34 33 33 33
27 27 26 27 27 28 28 28 29 30 31 31 31 32 32 33 33 33 34 35 36 36 37 36 36 36 36 36 36 35 34 33 32 32 32 32 32 31 31 31 31 32 33
26 25 25 26 26 27 27 27 28 28 28 30 30 31 31 31 32 32 33 34 34 34 34 34 34 34 33 33 32 31 30 29 30 30 30 29 28 27 27 28 30 30 30
23 23 24 25 26 26 26 27 27 28 29 29 30 30 31 30 31 31 31 32 32 32 32 32 31 30 30 29 28 28 27 27 27 27 26 26 25 25 26 26 27 27 27
23 23 23 24 24 25 25 26 26 26 26 27 27 27 27 28 28 29 29 29 29 29 29 29 28 27 26 26 25 25 25 25 25 24 23 23 22 23 23 24 25 25 25
21 21 22 22 23 23 23 23 24 24 25 25 26 26 26 26 27 27 28 28 28 27 26 25 25 24 24 23 23 23 23 22 22 20 20 20 20 21 21 22 22 23 23
20 20 20 20 20 21 22 22 23 23 24 24 25 24 25 25 25 26 26 25 25 24 24 23 23 22 21 21 20 20 20 20 18 17 17 17 18 19 20 20 20 20 21
18 18 18 19 19 20 20 20 21 21 22 22 23 23 23 24 24 24 24 23 23 22 22 21 21 20 19 19 19 19 18 17 16 16 16 16 16 17 17 18 18 18 19

GEFSMA_500_meanwind_108.txt.gz
Wind_Speed
21 22 23 24 24 24 25 25 24 24 23 22 21 19 18 17 17 17 17 18 17 17 16 16 16 15 14 14 14 15 15 15 15 15 15 16 16 17 18 18 18 19 19
23 23 23 24 24 24 26 26 24 24 23 22 21 21 20 19 19 19 20 19 19 19 18 18 18 17 17 16 16 16 16 16 17 17 17 17 18 19 20 21 22 23 23
23 22 22 22 24 24 25 26 26 24 23 23 22 22 21 20 21 21 21 20 20 20 20 20 19 19 19 19 19 19 19 19 19 20 21 21 22 23 24 24 25 25 26
23 22 22 21 22 22 24 24 25 24 24 24 24 24 23 23 23 23 23 23 22 22 22 21 21 21 22 22 22 22 22 22 23 23 24 25 26 26 27 27 28 28 29
23 23 22 22 21 22 24 24 23 24 24 25 25 24 24 24 24 24 24 24 24 24 23 23 23 24 24 25 24 25 25 26 26 26 27 27 28 29 30 30 31 32 33
23 23 23 23 22 22 23 24 25 25 24 25 25 26 26 26 25 25 25 25 24 24 25 24 25 25 25 26 27 27 28 29 29 29 30 30 31 32 33 33 34 35 35
24 23 24 24 24 23 23 24 25 25 25 26 27 27 27 26 26 27 27 27 26 26 26 26 27 27 28 28 29 29 30 31 32 32 33 33 34 35 35 36 36 37 38
23 23 24 24 24 24 24 24 25 26 27 27 27 28 29 29 29 29 28 27 27 28 28 29 29 30 30 30 31 31 32 32 34 34 34 35 36 37 37 38 39 40 41
25 24 25 24 24 24 24 24 25 25 27 28 29 30 30 30 30 30 30 29 29 30 31 31 31 32 32 32 33 34 34 35 35 35 36 37 38 39 40 41 42 43 44
26 24 25 25 25 25 25 24 25 26 27 27 28 30 31 31 32 32 32 32 33 33 33 32 33 33 33 34 35 35 35 36 36 37 37 38 39 40 41 42 44 45 45
25 25 25 24 25 25 26 25 25 26 27 28 28 28 29 30 31 33 34 35 35 35 34 35 35 35 35 36 35 36 37 37 37 38 39 40 41 42 43 44 45 46 47
25 25 24 25 26 26 27 28 27 26 27 29 29 30 31 32 31 32 33 35 36 36 36 36 35 36 36 36 37 37 38 38 40 40 41 42 43 44 45 46 47 47 48
26 26 26 26 26 25 25 26 27 27 27 28 29 31 32 33 33 33 34 34 35 36 36 35 35 36 36 37 38 38 39 41 42 42 42 43 44 45 46 47 47 48 48
26 26 26 26 26 26 25 26 27 28 28 29 29 30 32 33 34 33 33 34 35 35 36 36 35 36 37 38 39 40 41 42 42 42 43 44 44 45 46 46 47 47 47
26 25 26 27 27 27 26 27 27 27 27 28 29 31 32 33 34 34 34 34 34 34 35 35 36 37 38 38 39 40 40 41 41 41 42 43 43 44 45 45 45 45 44
27 26 27 27 27 27 27 27 27 27 28 29 30 30 30 31 32 32 33 33 33 33 33 34 35 36 37 38 38 38 39 40 40 40 41 42 42 42 42 42 42 41 40
27 27 26 26 26 26 27 27 27 27 28 29 30 30 30 30 30 31 32 32 32 33 34 34 35 36 36 36 36 37 38 39 39 40 40 40 39 39 39 39 38 37 37
26 27 26 27 27 27 26 27 27 28 28 28 29 30 30 30 30 31 31 32 32 33 33 34 34 35 36 36 37 38 37 37 38 38 38 37 37 36 36 35 35 35 35
24 25 25 26 26 26 26 26 26 26 26 27 27 28 28 28 29 30 31 32 32 32 33 33 34 34 35 36 36 36 36 35 35 35 35 34 34 33 33 32 32 32 32
23 23 23 24 25 25 25 25 25 25 26 26 26 26 27 27 28 29 30 31 31 31 32 32 33 34 34 34 35 34 34 33 33 32 32 32 31 31 31 30 30 30 30
21 21 20 21 22 23 23 24 24 24 24 24 24 24 25 26 27 28 29 29 29 30 31 32 33 33 33 32 32 32 31 31 30 30 30 29 29 29 28 28 27 27 26
19 19 18 19 19 20 20 21 22 22 22 22 23 24 25 25 26 27 27 28 29 30 30 31 31 31 31 31 30 29 29 28 28 28 28 27 26 26 25 24 24 23 23
16 17 17 17 18 18 18 19 19 20 20 21 22 23 24 24 25 25 26 27 28 28 29 29 28 28 28 27 27 26 26 26 26 26 25 24 23 22 21 21 20 20 21
15 15 16 16 16 16 17 18 18 19 19 20 21 21 22 23 24 24 25 25 26 26 26 26 26 25 25 24 24 24 24 24 24 23 22 20 19 18 17 17 18 18 19
13 13 14 14 14 15 16 17 17 18 18 19 20 20 21 22 22 23 23 24 24 24 24 23 22 22 22 22 22 22 22 21 21 19 18 17 16 16 15 16 16 16 17
12 13 12 13 13 13 13 14 15 16 17 18 18 19 20 20 21 21 21 22 22 21 21 20 20 20 20 20 20 19 19 18 17 16 15 15 14 14 14 14 14 14 15